This is the latest recevied weather packets stored in our database for station/object PP5CI-13. If no packets are shown the sender has not sent any weather packets the latest 10 day(s).
| Time | Temp. | Humidity | Pressure | Rain* | Wind** | Luminosity | Snow |
|---|---|---|---|---|---|---|---|
| 1777389936 | 20.56° C | 72% | 1019.2 hPa | 0 mm | - | - | - |
| 1777389323 | 20.56° C | 71% | 1019.2 hPa | 0 mm | - | - | - |
| 1777388741 | 21.11° C | 70% | 1019.2 hPa | 0 mm | - | - | - |
| 1777388125 | 21.67° C | 69% | 1019.2 hPa | 0 mm | - | - | - |
| 1777387525 | 22.22° C | 67% | 1019.2 hPa | 0 mm | - | - | - |
| 1777386925 | 21.67° C | 66% | 1019.2 hPa | 0 mm | - | - | - |
| 1777386335 | 21.67° C | 66% | 1019.8 hPa | 0 mm | - | - | - |
| 1777385723 | 21.67° C | 67% | 1020.2 hPa | 0 mm | - | - | - |
| 1777385129 | 21.67° C | 67% | 1020.2 hPa | 0 mm | - | - | - |
| 1777384525 | 21.67° C | 67% | 1020.2 hPa | 0 mm | - | - | - |
| 1777383924 | 21.67° C | 66% | 1020.2 hPa | 0 mm | - | - | - |
| 1777383325 | 21.67° C | 66% | 1020.2 hPa | 0 mm | - | - | - |
| 1777382735 | 21.67° C | 66% | 1019.9 hPa | 0 mm | - | - | - |
| 1777382123 | 21.67° C | 65% | 1019.2 hPa | 0 mm | - | - | - |
| 1777381529 | 21.67° C | 67% | 1019.2 hPa | 0 mm | - | - | - |
| 1777380925 | 21.67° C | 68% | 1019.2 hPa | 0 mm | - | - | - |
| 1777380325 | 21.11° C | 71% | 1019.2 hPa | 0 mm | - | - | - |
| 1777379725 | 21.11° C | 71% | 1019.2 hPa | 0 mm | - | - | - |
| 1777379135 | 21.11° C | 71% | 1019.2 hPa | 0 mm | - | - | - |
| 1777378524 | 21.11° C | 70% | 1019.2 hPa | 0 mm | - | - | - |
| 1777377929 | 21.11° C | 70% | 1019.2 hPa | 0 mm | - | - | - |
| 1777377325 | 20.56° C | 71% | 1019.2 hPa | 0 mm | - | - | - |
| 1777376724 | 20.56° C | 72% | 1019.2 hPa | 0 mm | - | - | - |
| 1777376125 | 20.56° C | 74% | 1019.2 hPa | 0 mm | - | - | - |
| 1777375534 | 20.56° C | 85% | 1019.2 hPa | 0 mm | - | - | - |
* Rain latest hour (hover to see other rain measurements)
** Current wind speed in m/s (hover to see current wind gust speed)